Гулистон

Таджикистан     40°15′52″N   69°47′36″E
темп.,
°C
ветер,
м/с
пор.,
м/с
влажн.,
%
обл.,
%
осадки,
мм/ч
давл.,
гПа
погр.,
м
7 марта, вс
вс723:00+7зсз4579100 1.4 1015289
02:00+7зюз5674100 0.4 1016312
05:00+7зюз5682100 0.6 1018327
08:00+7зюз3480100 0.2 1020360
11:00+9зюз556499 0.2 1020717
14:00+12зюз554953 0.0 10181044
17:00+12зюз335129 0.0 1018832
20:00+10зюз236038 0.0 1019162
8 марта, пн
пн823:00+9вюв116529 0.0 101926
02:00+8в126691 0.0 101941
05:00+8в226773 0.0 101925
08:00+9всв246368 0.0 1020108
11:00+13в335184 0.0 1020558
14:00+15всв2242100 0.0 1020817
17:00+15в2240100 0.0 1020669
20:00+13всв3547100 0.0 1021177
9 марта, вт
вт923:00+12всв51051100 0.0 1020457
02:00+12всв61253100 0.0 1019479
05:00+11всв71254100 0.0 1017496
08:00+11всв81351100 0.0 1017702
11:00+14всв101340100 0.0 1015913
14:00+17в101232100 0.0 1013957
17:00+17всв91231100 0.0 1012800
20:00+15всв71335100 0.0 1012530
10 марта, ср
ср1023:00+14всв4937100 0.0 1012314
02:00+14в3738100 0.0 1011157
05:00+13в3337100 0.0 101267
08:00+13зюз4952100 0.2 1014752
11:00+13св0164100 1.6 1015325
14:00+13юз2365100 0.6 1016324
17:00+11ююз7861100 1.8 1017401
20:00+9зюз5677100 0.6 1019476
11 марта, чт
чт1123:00+8з5786100 1.1 1019404
02:00+8зюз4585100 0.4 1017348
05:00+8зюз4690100 1.7 1018339
08:00+7юз4583100 0.5 1019259
11:00+11зюз3361100 0.5 1018524
14:00+14всв23459 0.0 1016790
17:00+15всв78425 0.0 1016947
20:00+13всв9115777 0.0 1018809